FW7539 Weather Reports


Display with metric or nautical units.
time (UTC)temp
F
wind
direction
speed
MPH
gust
MPH
rain 1hr
in
rain 24hr
in
rain mn
in
humidity
%
barometer
mb
20260508065521 46 277 0.0 1.0 0.00 0.00 0.00 70 1015.5
20260508065000 47 278 0.0 1.0 0.00 0.00 0.00 70 1015.5
20260508064500 47 278 0.0 2.0 0.00 0.00 0.00 68 1015.5
20260508064000 47 278 0.0 2.0 0.00 0.00 0.00 68 1015.6
20260508063500 47 278 0.0 1.0 0.00 0.00 0.00 68 1015.7
20260508063000 47 278 0.0 1.0 0.00 0.00 0.00 68 1015.8
20260508062500 47 278 0.0 1.0 0.00 0.00 0.00 67 1015.8
20260508062021 47 284 0.0 2.0 0.00 0.00 0.00 68 1015.9
20260508061500 47 288 0.0 2.0 0.00 0.00 0.00 66 1016.0
20260508060959 47 290 0.0 2.0 0.00 0.00 0.00 67 1016.0
20260508060500 47 290 0.0 1.0 0.00 0.00 0.00 67 1016.0
20260508060000 47 290 0.0 1.0 0.00 0.00 0.00 67 1016.0
20260508055500 47 290 0.0 2.0 0.00 0.00 0.00 66 1016.0
20260508055000 47 290 0.0 2.0 0.00 0.00 0.00 66 1016.0
20260508054521 48 290 0.0 2.0 0.00 0.00 0.00 65 1015.9
20260508053959 48 291 0.0 1.0 0.00 0.00 0.00 64 1015.9
20260508053500 48 286 0.0 3.0 0.00 0.00 0.00 64 1015.9
20260508053000 48 249 0.0 3.0 0.00 0.00 0.00 65 1016.0
20260508052500 48 229 0.0 3.0 0.00 0.00 0.00 64 1016.0
20260508052000 48 221 0.0 2.0 0.00 0.00 0.00 65 1016.0
20260508051521 48 221 0.0 1.0 0.00 0.00 0.00 67 1016.0
20260508051000 48 204 0.0 2.0 0.00 0.00 0.00 66 1015.9
20260508050500 48 199 0.0 2.0 0.00 0.00 0.00 66 1015.9
20260508050000 49 194 0.0 1.0 0.00 0.00 0.00 66 1015.9
20260508045500 49 194 0.0 2.0 0.00 0.00 0.00 65 1015.8
20260508045000 49 194 0.0 2.0 0.00 0.00 0.00 64 1015.7
20260508044500 50 193 0.0 1.0 0.00 0.00 0.00 62 1015.8
20260508044000 50 189 0.0 1.0 0.00 0.00 0.00 59 1015.9
20260508043500 50 152 0.0 2.0 0.00 0.00 0.00 60 1015.9
20260508043000 51 160 0.0 2.0 0.00 0.00 0.00 57 1015.9
20260508042500 51 192 0.0 2.0 0.00 0.00 0.00 57 1015.8
20260508042000 51 205 0.0 2.0 0.00 0.00 0.00 56 1015.9
20260508041500 51 249 0.0 2.0 0.00 0.00 0.00 57 1015.8
20260508041000 51 262 1.0 4.0 0.00 0.00 0.00 57 1015.8
20260508040500 50 238 1.0 4.0 0.00 0.00 0.00 58 1015.8
20260508040021 50 158 0.0 2.0 0.00 0.00 0.00 60 1015.7
20260508035500 50 141 0.0 2.0 0.00 0.00 0.00 60 1015.6
20260508035000 49 152 0.0 3.0 0.00 0.00 0.00 62 1015.6
20260508034500 49 175 0.0 3.0 0.00 0.00 0.00 63 1015.6
20260508034000 48 249 0.0 2.0 0.00 0.00 0.00 64 1015.7
20260508033500 48 249 0.0 2.0 0.00 0.00 0.00 64 1015.7
20260508033000 48 250 0.0 2.0 0.00 0.00 0.00 66 1015.8
20260508032500 47 253 0.0 2.0 0.00 0.00 0.00 69 1015.9
20260508032000 47 258 0.0 1.0 0.00 0.00 0.00 70 1015.8
20260508031500 47 258 0.0 1.0 0.00 0.00 0.00 69 1015.8
20260508031000 47 258 0.0 1.0 0.00 0.00 0.00 68 1015.8
20260508030500 47 258 0.0 1.0 0.00 0.00 0.00 70 1015.8
20260508030000 47 258 0.0 1.0 0.00 0.00 0.00 69 1015.7
20260508025500 47 258 0.0 1.0 0.00 0.00 0.00 67 1015.7
20260508025000 47 258 0.0 1.0 0.00 0.00 0.00 71 1015.6
20260508024500 47 258 0.0 1.0 0.00 0.00 0.00 72 1015.7
20260508024000 47 258 0.0 1.0 0.00 0.00 0.00 72 1015.7
20260508023500 47 258 0.0 1.0 0.00 0.00 0.00 71 1015.7
20260508023021 47 258 0.0 1.0 0.00 0.00 0.00 72 1015.7
20260508022500 47 258 0.0 1.0 0.00 0.00 0.00 70 1015.6
20260508022000 47 258 0.0 1.0 0.00 0.00 0.00 70 1015.6
20260508021501 47 258 0.0 1.0 0.00 0.00 0.00 71 1015.7
20260508021000 47 258 0.0 1.0 0.00 0.00 0.00 71 1015.7
20260508020500 47 258 0.0 1.0 0.00 0.00 0.00 72 1015.6
20260508020000 48 258 0.0 1.0 0.00 0.00 0.00 71 1015.6
20260508015500 48 0 0.0 0.0 0.00 0.00 0.00 68 1015.6
20260508015000 48 258 0.0 1.0 0.00 0.00 0.00 67 1015.6
20260508014500 48 258 0.0 1.0 0.00 0.00 0.00 66 1015.6
20260508014001 49 258 0.0 1.0 0.00 0.00 0.00 69 1015.7
20260508013501 49 258 0.0 1.0 0.00 0.00 0.00 67 1015.7
20260508013000 49 258 0.0 1.0 0.00 0.00 0.00 64 1015.7
20260508012500 50 258 0.0 1.0 0.00 0.00 0.00 63 1015.6
20260508012021 50 258 0.0 1.0 0.00 0.00 0.00 64 1015.6
20260508011500 51 258 0.0 1.0 0.00 0.00 0.00 61 1015.5
20260508011000 51 258 0.0 1.0 0.00 0.00 0.00 63 1015.5
20260508010522 52 258 0.0 1.0 0.00 0.00 0.00 62 1015.6
20260508010022 52 258 0.0 1.0 0.00 0.00 0.00 59 1015.5
20260508005501 53 258 0.0 1.0 0.00 0.00 0.00 59 1015.5
20260508005000 53 258 0.0 1.0 0.00 0.00 0.00 56 1015.5
20260508004500 54 258 0.0 1.0 0.00 0.00 0.00 58 1015.5
20260508004000 55 258 0.0 1.0 0.00 0.00 0.00 56 1015.4
20260508003500 55 258 0.0 2.0 0.00 0.00 0.00 51 1015.4
20260508003000 56 258 0.0 2.0 0.00 0.00 0.00 47 1015.3
20260508002521 56 0 0.0 0.0 0.00 0.00 0.00 46 1015.2
20260508002000 56 258 0.0 1.0 0.00 0.00 0.00 47 1015.3
20260508001500 57 258 0.0 2.0 0.00 0.00 0.00 45 1015.3
20260508001000 57 259 0.0 2.0 0.00 0.00 0.00 45 1015.3
20260508000500 58 247 0.0 3.0 0.00 0.00 0.00 44 1015.3
20260508000000 58 260 1.0 3.0 0.00 0.00 0.00 43 1015.3
20260507235500 58 272 1.0 2.0 0.00 0.00 0.00 43 1015.2
20260507235000 59 249 1.0 3.0 0.00 0.00 0.00 41 1015.2
20260507234500 59 243 1.0 3.0 0.00 0.00 0.00 40 1015.2
20260507234000 60 252 0.0 2.0 0.00 0.00 0.00 44 1015.2
20260507233500 60 251 1.0 4.0 0.00 0.00 0.00 41 1015.1
20260507233000 61 243 1.0 4.0 0.00 0.00 0.00 41 1015.1
20260507232500 61 246 1.0 4.0 0.00 0.00 0.00 38 1015.0
20260507232021 62 267 1.0 4.0 0.00 0.00 0.00 37 1015.0
20260507231500 61 256 1.0 4.0 0.00 0.00 0.00 38 1015.1
20260507231021 62 230 2.0 4.0 0.00 0.00 0.00 38 1015.0
20260507230521 62 250 2.0 3.0 0.00 0.00 0.00 37 1015.1
20260507230022 62 327 2.0 7.0 0.00 0.00 0.00 36 1015.1
20260507225500 62 334 2.0 7.0 0.00 0.00 0.00 38 1015.2
20260507225022 62 345 2.0 8.0 0.00 0.00 0.00 39 1015.1
20260507224501 62 287 2.0 8.0 0.00 0.00 0.00 37 1015.1
20260507224000 62 258 2.0 7.0 0.00 0.00 0.00 37 1015.0
20260507223500 62 4 2.0 8.0 0.00 0.00 0.00 42 1015.1
20260507223001 61 324 2.0 8.0 0.00 0.00 0.00 39 1015.1
20260507222500 61 252 2.0 8.0 0.00 0.00 0.00 39 1015.1
20260507222000 61 306 2.0 9.0 0.00 0.00 0.00 37 1015.1
20260507221521 62 359 3.0 9.0 0.00 0.00 0.00 39 1015.0
20260507221001 62 347 2.0 7.0 0.00 0.00 0.00 37 1015.1
20260507220500 62 355 2.0 8.0 0.00 0.00 0.00 39 1015.1
20260507220000 62 359 2.0 8.0 0.00 0.00 0.00 36 1015.2
20260507215500 62 326 2.0 5.0 0.00 0.00 0.00 37 1015.2
20260507215000 62 333 2.0 7.0 0.00 0.00 0.00 38 1015.2
20260507214501 62 3 3.0 11.0 0.00 0.00 0.00 40 1015.3
20260507214000 61 7 4.0 11.0 0.00 0.00 0.00 37 1015.4
20260507213500 62 357 3.0 10.0 0.00 0.00 0.00 37 1015.4
20260507213001 61 299 2.0 7.0 0.00 0.00 0.00 38 1015.3
20260507212500 61 299 2.0 9.0 0.00 0.00 0.00 38 1015.3
20260507212000 61 345 3.0 9.0 0.00 0.00 0.00 38 1015.3
20260507211501 62 330 3.0 9.0 0.00 0.00 0.00 37 1015.4
20260507211000 63 276 3.0 9.0 0.00 0.00 0.00 38 1015.3
20260507210500 63 298 2.0 7.0 0.00 0.00 0.00 37 1015.4
20260507210000 63 325 2.0 8.0 0.00 0.00 0.00 38 1015.3
20260507205500 63 345 2.0 8.0 0.00 0.00 0.00 39 1015.2
20260507205000 63 337 2.0 10.0 0.00 0.00 0.00 41 1015.2
20260507204501 63 330 3.0 10.0 0.00 0.00 0.00 37 1015.2
20260507204001 63 332 2.0 7.0 0.00 0.00 0.00 38 1015.3
20260507203500 63 296 3.0 9.0 0.00 0.00 0.00 37 1015.2
20260507203000 63 299 3.0 9.0 0.00 0.00 0.00 38 1015.2
20260507202501 63 345 3.0 8.0 0.00 0.00 0.00 39 1015.2
20260507202000 62 8 2.0 8.0 0.00 0.00 0.00 40 1015.1
20260507201500 62 348 2.0 6.0 0.00 0.00 0.00 40 1015.2
20260507201001 61 267 3.0 11.0 0.00 0.00 0.00 40 1015.2
20260507200522 61 273 3.0 11.0 0.00 0.00 0.00 39 1015.4
20260507200000 61 311 3.0 10.0 0.00 0.00 0.00 40 1015.3
20260507195521 61 317 3.0 9.0 0.00 0.00 0.00 40 1015.3
20260507195001 61 283 3.0 10.0 0.00 0.00 0.00 40 1015.2
20260507194500 61 252 3.0 10.0 0.00 0.00 0.00 39 1015.3
20260507194000 61 248 2.0 7.0 0.00 0.00 0.00 37 1015.4
20260507193501 61 271 3.0 10.0 0.00 0.00 0.00 38 1015.4
20260507193022 61 281 3.0 10.0 0.00 0.00 0.00 38 1015.5
20260507192500 61 296 3.0 8.0 0.00 0.00 0.00 39 1015.6
20260507192021 61 290 3.0 8.0 0.00 0.00 0.00 42 1015.5
20260507191521 60 296 3.0 8.0 0.00 0.00 0.00 41 1015.5
20260507191001 60 319 2.0 8.0 0.00 0.00 0.00 39 1015.6
20260507190501 60 354 3.0 10.0 0.00 0.00 0.00 40 1015.6
20260507190002 60 348 4.0 10.0 0.00 0.00 0.00 40 1015.7
20260507185501 60 326 3.0 9.0 0.00 0.00 0.00 40 1015.7
20260507185001 60 321 3.0 9.0 0.00 0.00 0.00 42 1015.6
20260507184500 60 300 3.0 9.0 0.00 0.00 0.00 42 1015.7
20260507184000 61 298 2.0 8.0 0.00 0.00 0.00 39 1015.7
20260507183500 61 352 2.0 10.0 0.00 0.00 0.00 42 1015.5
20260507183000 60 353 3.0 10.0 0.00 0.00 0.00 47 1015.7
20260507182501 60 325 3.0 9.0 0.00 0.00 0.00 44 1016.0
20260507182001 59 350 3.0 9.0 0.00 0.00 0.00 44 1015.9
20260507181500 59 308 3.0 14.0 0.00 0.00 0.00 41 1015.8
20260507181000 59 264 3.0 14.0 0.00 0.00 0.00 42 1015.9
20260507180500 60 291 2.0 8.0 0.00 0.00 0.00 40 1015.9
20260507180021 60 351 2.0 5.0 0.00 0.00 0.00 43 1015.9
20260507175501 59 356 3.0 10.0 0.00 0.00 0.00 43 1015.9
20260507175022 59 355 4.0 10.0 0.00 0.00 0.00 42 1016.1
20260507174521 58 323 3.0 10.0 0.00 0.00 0.00 42 1016.2
20260507174022 58 274 3.0 10.0 0.00 0.00 0.00 41 1016.2
20260507173501 58 279 3.0 11.0 0.00 0.00 0.00 43 1016.3
20260507173000 58 337 3.0 11.0 0.00 0.00 0.00 42 1016.2
20260507172500 59 341 3.0 9.0 0.00 0.00 0.00 43 1016.4
20260507172000 59 338 3.0 10.0 0.00 0.00 0.00 40 1016.4
20260507171501 59 358 3.0 10.0 0.00 0.00 0.00 41 1016.5
20260507171022 58 346 3.0 10.0 0.00 0.00 0.00 43 1016.5
20260507170501 58 338 3.0 10.0 0.00 0.00 0.00 45 1016.6
20260507170000 58 345 3.0 13.0 0.00 0.00 0.00 42 1016.6
20260507165500 58 302 3.0 13.0 0.00 0.00 0.00 42 1016.7
20260507165001 57 266 3.0 7.0 0.00 0.00 0.00 41 1016.7
20260507164501 57 330 3.0 9.0 0.00 0.00 0.00 42 1016.7
20260507164000 57 360 4.0 9.0 0.00 0.00 0.00 45 1016.7
20260507163521 57 7 4.0 14.0 0.00 0.00 0.00 44 1016.8
20260507163000 57 1 4.0 14.0 0.00 0.00 0.00 46 1016.9
20260507162501 57 354 3.0 8.0 0.00 0.00 0.00 46 1016.9
20260507162000 57 355 3.0 11.0 0.00 0.00 0.00 45 1017.0
20260507161521 56 308 3.0 11.0 0.00 0.00 0.00 45 1017.0
20260507161001 56 270 3.0 9.0 0.00 0.00 0.00 46 1016.9
20260507160501 56 313 3.0 7.0 0.00 0.00 0.00 44 1017.0
20260507160001 56 358 4.0 12.0 0.00 0.00 0.00 46 1016.9
20260507155500 56 356 4.0 12.0 0.00 0.00 0.00 47 1016.9
20260507155001 56 293 3.0 12.0 0.00 0.00 0.00 47 1017.0
20260507154501 56 271 3.0 12.0 0.00 0.00 0.00 44 1016.8
20260507154000 56 271 2.0 6.0 0.00 0.00 0.00 46 1016.9
20260507153500 56 287 3.0 11.0 0.00 0.00 0.00 47 1016.9
20260507153000 55 315 2.0 11.0 0.00 0.00 0.00 48 1016.8
20260507152501 55 287 2.0 7.0 0.00 0.00 0.00 52 1017.0
20260507152000 54 250 3.0 8.0 0.00 0.00 0.00 50 1016.9
20260507151501 54 253 3.0 9.0 0.00 0.00 0.00 47 1016.9
20260507151001 54 260 3.0 9.0 0.00 0.00 0.00 46 1016.8
20260507150522 54 327 3.0 8.0 0.00 0.00 0.00 46 1016.8
20260507150000 54 359 4.0 11.0 0.00 0.00 0.00 48 1016.7
20260507145500 54 342 4.0 11.0 0.00 0.00 0.00 46 1016.8
20260507145000 53 305 3.0 11.0 0.00 0.00 0.00 46 1016.8
20260507144522 53 248 3.0 9.0 0.00 0.00 0.00 50 1016.7
20260507144022 53 256 2.0 9.0 0.00 0.00 0.00 48 1016.7
20260507143500 53 354 2.0 8.0 0.00 0.00 0.00 49 1016.7
20260507143000 53 359 3.0 9.0 0.00 0.00 0.00 49 1016.7
20260507142500 52 332 2.0 9.0 0.00 0.00 0.00 50 1016.9
20260507142001 52 309 2.0 8.0 0.00 0.00 0.00 50 1016.9
20260507141501 52 289 3.0 8.0 0.00 0.00 0.00 53 1017.0
20260507141000 52 319 3.0 8.0 0.00 0.00 0.00 49 1017.0
20260507140500 51 358 3.0 8.0 0.00 0.00 0.00 53 1017.0
20260507140001 51 2 3.0 9.0 0.00 0.00 0.00 53 1017.0
20260507135502 51 2 3.0 13.0 0.00 0.00 0.00 56 1017.0
20260507135021 51 352 3.0 13.0 0.00 0.00 0.00 56 1016.9
20260507134500 51 308 2.0 5.0 0.00 0.00 0.00 57 1016.8
20260507134022 51 324 2.0 7.0 0.00 0.00 0.00 56 1016.9
20260507133501 50 344 2.0 9.0 0.00 0.00 0.00 56 1016.9
20260507133001 50 359 2.0 9.0 0.00 0.00 0.00 55 1016.9
20260507132500 50 354 2.0 10.0 0.00 0.00 0.00 57 1016.9
20260507132000 50 357 2.0 10.0 0.00 0.00 0.00 58 1016.9
20260507131522 50 5 2.0 7.0 0.00 0.00 0.00 59 1017.0
20260507131021 49 351 2.0 7.0 0.00 0.00 0.00 59 1017.0
20260507130521 49 324 2.0 6.0 0.00 0.00 0.00 60 1016.8
20260507130001 49 357 2.0 7.0 0.00 0.00 0.00 60 1016.9
20260507125501 48 2 2.0 7.0 0.00 0.00 0.00 63 1016.9
20260507125000 48 335 1.0 4.0 0.00 0.00 0.00 66 1016.8
20260507124501 48 292 1.0 3.0 0.00 0.00 0.00 67 1016.9
20260507124001 47 342 2.0 4.0 0.00 0.00 0.00 68 1016.9
20260507123521 47 344 1.0 4.0 0.00 0.00 0.00 68 1017.0
20260507123001 47 351 1.0 4.0 0.00 0.00 0.00 69 1017.0
20260507122522 46 356 1.0 4.0 0.00 0.00 0.00 71 1017.0
20260507122001 46 338 1.0 4.0 0.00 0.00 0.00 71 1017.0
20260507121521 46 315 1.0 3.0 0.00 0.00 0.00 73 1017.1
20260507121001 45 284 0.0 3.0 0.00 0.00 0.00 74 1017.0
20260507120501 45 237 1.0 3.0 0.00 0.00 0.00 76 1016.9
20260507120001 44 245 1.0 3.0 0.00 0.00 0.00 77 1017.0
20260507115500 44 274 1.0 2.0 0.00 0.00 0.00 78 1017.0
20260507115000 43 282 1.0 2.0 0.00 0.00 0.00 81 1017.0
20260507114501 42 278 0.0 2.0 0.00 0.00 0.00 81 1016.9
20260507114001 42 273 0.0 2.0 0.00 0.00 0.00 84 1016.9
20260507113501 41 287 0.0 2.0 0.00 0.00 0.00 85 1016.8
20260507113001 41 3 0.0 2.0 0.00 0.00 0.00 86 1016.9
20260507112501 40 27 0.0 1.0 0.00 0.00 0.00 87 1017.0
20260507112022 40 7 0.0 1.0 0.00 0.00 0.00 88 1016.8
20260507111522 40 5 0.0 1.0 0.00 0.00 0.00 88 1016.8
20260507111001 40 5 0.0 1.0 0.00 0.00 0.00 89 1016.8
20260507110522 40 5 0.0 1.0 0.00 0.00 0.00 89 1016.6
20260507110000 40 5 0.0 1.0 0.00 0.00 0.00 89 1016.5
20260507105501 40 5 0.0 1.0 0.00 0.00 0.00 89 1016.5
20260507105001 39 5 0.0 1.0 0.00 0.00 0.00 89 1016.4
20260507104501 39 5 0.0 1.0 0.00 0.00 0.00 89 1016.4
20260507104022 39 5 0.0 1.0 0.00 0.00 0.00 89 1016.4
20260507103501 40 5 0.0 1.0 0.00 0.00 0.00 89 1016.4
20260507103000 40 5 0.0 1.0 0.00 0.00 0.00 89 1016.3
20260507102501 40 5 0.0 1.0 0.00 0.00 0.00 89 1016.3
20260507102001 40 5 0.0 1.0 0.00 0.00 0.00 89 1016.3
20260507101500 40 5 0.0 1.0 0.00 0.00 0.00 89 1016.4
20260507101001 40 5 0.0 1.0 0.00 0.00 0.00 89 1016.3
20260507100501 40 5 0.0 1.0 0.00 0.00 0.00 89 1016.3
20260507100001 40 5 0.0 1.0 0.00 0.00 0.00 89 1016.3
20260507095500 40 5 0.0 1.0 0.00 0.00 0.00 90 1016.3
20260507095001 40 0 0.0 0.0 0.00 0.00 0.00 90 1016.3
20260507094501 40 0 0.0 0.0 0.00 0.00 0.00 89 1016.4
20260507094001 40 0 0.0 0.0 0.00 0.00 0.00 89 1016.4
20260507093501 40 5 0.0 1.0 0.00 0.00 0.00 89 1016.4
20260507093001 41 5 0.0 1.0 0.00 0.00 0.00 89 1016.4
20260507092502 41 5 0.0 1.0 0.00 0.00 0.00 89 1016.3
20260507092000 41 5 0.0 1.0 0.00 0.00 0.00 89 1016.2
20260507091501 41 5 0.0 1.0 0.00 0.00 0.00 89 1016.1
20260507091022 41 5 0.0 1.0 0.00 0.00 0.00 89 1016.1
20260507090501 41 5 0.0 1.0 0.00 0.00 0.00 89 1016.1
20260507090001 41 5 0.0 1.0 0.00 0.00 0.00 89 1016.0
20260507085501 41 5 0.0 1.0 0.00 0.00 0.00 89 1016.0
20260507085001 41 5 0.0 1.0 0.00 0.00 0.00 90 1016.0
20260507084501 41 5 0.0 1.0 0.00 0.00 0.00 90 1015.9
20260507084001 41 5 0.0 1.0 0.00 0.00 0.00 90 1015.9
20260507083501 41 5 0.0 1.0 0.00 0.00 0.00 90 1015.9
20260507083001 41 5 0.0 1.0 0.00 0.00 0.00 90 1015.8
20260507082522 42 5 0.0 1.0 0.00 0.00 0.00 90 1015.8
20260507082021 42 5 0.0 1.0 0.00 0.00 0.00 90 1015.8
20260507081500 42 5 0.0 1.0 0.00 0.00 0.00 90 1015.8
20260507081001 42 5 0.0 1.0 0.00 0.00 0.00 90 1015.8
20260507080501 42 5 0.0 1.0 0.00 0.00 0.00 89 1015.8
20260507080022 42 5 0.0 1.0 0.00 0.00 0.00 89 1015.7
20260507075501 42 5 0.0 1.0 0.00 0.01 0.00 89 1015.8
20260507075001 42 5 0.0 1.0 0.00 0.01 0.00 90 1015.7
20260507074501 42 5 0.0 1.0 0.00 0.01 0.00 90 1015.7
20260507074000 42 5 0.0 1.0 0.00 0.01 0.00 90 1015.7
20260507073501 42 5 0.0 1.0 0.00 0.01 0.00 90 1015.7
20260507073001 42 5 0.0 1.0 0.00 0.02 0.00 90 1015.7
20260507072501 42 5 0.0 1.0 0.00 0.03 0.00 90 1015.8
20260507072001 43 5 0.0 1.0 0.00 0.04 0.00 90 1015.7
20260507071501 43 5 0.0 1.0 0.00 0.05 0.00 89 1015.6
20260507071001 43 5 0.0 1.0 0.00 0.05 0.00 89 1015.6
20260507070501 43 5 0.0 1.0 0.00 0.05 0.00 89 1015.6
20260507070001 43 5 0.0 1.0 0.00 0.06 0.00 89 1015.8